Cook, MN

6:54 AM CDT on June 27, 2017 (GMT -0500)
Cook Municipal

Weather History for KCQM - October, 2011

Change the Weather History Date:

Friday, October 14, 2011

  Actual Average Record
Temperature  
Mean Temperature 44 °F -  
Max Temperature 46 °F 50 °F 64 °F (2005)
Min Temperature 41 °F 32 °F 24 °F (2002)
Degree Days  
Heating Degree Days 22    
Moisture  
Dew Point 38 °F    
Average Humidity 79    
Maximum Humidity 93    
Minimum Humidity 57    
Precipitation  
Precipitation 0.00 in - - ()
Sea Level Pressure  
Sea Level Pressure 29.57 in    
Wind  
Wind Speed 10 mph (WNW)    
Max Wind Speed 18 mph    
Max Gust Speed 31 mph    
Visibility 9 miles    
Events Rain    
Averages and records for this station are not official NWS values.
T = Trace of Precipitation, MM = Missing Value Source: NWS Daily Summary

Daily Weather History Graph

Daily Weather History Graph

Search for Another Location

Airport or City:

Trip Planner

Search our weather history database for the weather conditions in past years. The results will help you decide how hot, cold, wet, or windy it might be!

Date:

Astronomy

Oct. 14, 2011 Rise Set
Actual Time 7:28 AM CDT 6:24 PM CDT
Civil Twilight 6:56 AM CDT 6:55 PM CDT
Nautical Twilight 6:21 AM CDT 7:31 PM CDT
Astronomical Twilight 5:45 AM CDT 8:07 PM CDT
Moon 7:22 PM CDT (10/14) 10:12 AM CDT (10/14)
Length of Visible Light 11h 58m
Length of Day
10h 56m
Waning Gibbous, 94% of the Moon is Illuminated
Oct 14
Waning Gibbous
Oct 19
Last Quarter
Oct 26
New
Nov 2
First Quarter
Nov 10
Full

Hourly Weather History & Observations

Time (CDT) Temp. Windchill Dew Point Humidity Pressure Visibility Wind Dir Wind Speed Gust Speed Precip Events Conditions
12:17 AM 44.6 °F 40.2 °F 41.0 °F 87% 29.56 in 10.0 mi West 8.1 mph - N/A   Overcast
12:36 AM 44.6 °F 40.2 °F 41.0 °F 87% 29.56 in 10.0 mi WNW 8.1 mph - N/A   Overcast
12:57 AM 44.6 °F 40.2 °F 41.0 °F 87% 29.56 in 10.0 mi WNW 8.1 mph - N/A   Overcast
1:16 AM 44.6 °F 40.2 °F 41.0 °F 87% 29.55 in 10.0 mi WNW 8.1 mph - N/A   Overcast
1:36 AM 44.6 °F 39.7 °F 41.0 °F 87% 29.55 in 10.0 mi West 9.2 mph - N/A   Overcast
1:57 AM 44.6 °F 39.7 °F 42.8 °F 93% 29.55 in 10.0 mi WNW 9.2 mph - N/A   Overcast
2:16 AM 44.6 °F 40.2 °F 42.8 °F 93% 29.55 in 7.0 mi WNW 8.1 mph - N/A   Overcast
2:36 AM 44.6 °F 40.7 °F 42.8 °F 93% 29.55 in 5.0 mi WNW 6.9 mph 16.1 mph N/A   Light Drizzle
2:57 AM 44.6 °F 40.7 °F 42.8 °F 93% 29.55 in 10.0 mi WNW 6.9 mph - N/A   Overcast
3:17 AM 44.6 °F 39.7 °F 42.8 °F 93% 29.55 in 10.0 mi WNW 9.2 mph - N/A   Overcast
3:36 AM 44.6 °F 39.7 °F 41.0 °F 87% 29.55 in 10.0 mi WNW 9.2 mph - N/A   Overcast
3:57 AM 44.6 °F 39.2 °F 41.0 °F 87% 29.55 in 10.0 mi West 10.4 mph - N/A   Overcast
4:16 AM 42.8 °F 37.5 °F 41.0 °F 93% 29.55 in 4.0 mi WNW 9.2 mph - N/A   Drizzle
4:36 AM 42.8 °F 37.5 °F 41.0 °F 93% 29.55 in 10.0 mi WNW 9.2 mph 16.1 mph N/A   Overcast
4:57 AM 42.8 °F 37.0 °F 41.0 °F 93% 29.55 in 10.0 mi WNW 10.4 mph 18.4 mph N/A   Overcast
5:16 AM 42.8 °F 36.6 °F 39.2 °F 87% 29.55 in 7.0 mi WNW 11.5 mph 18.4 mph N/A   Drizzle
5:37 AM 42.8 °F 36.2 °F 39.2 °F 87% 29.55 in 10.0 mi WNW 12.7 mph 18.4 mph N/A   Overcast
5:56 AM 42.8 °F 36.2 °F 39.2 °F 87% 29.55 in 10.0 mi WNW 12.7 mph 18.4 mph N/A   Overcast
6:16 AM 42.8 °F 37.5 °F 37.4 °F 81% 29.55 in 10.0 mi West 9.2 mph 17.3 mph N/A   Mostly Cloudy
6:37 AM 42.8 °F 38.0 °F 39.2 °F 87% 29.55 in 10.0 mi WNW 8.1 mph - N/A   Mostly Cloudy
6:56 AM 42.8 °F 36.6 °F 37.4 °F 81% 29.55 in 10.0 mi WNW 11.5 mph - N/A   Overcast
7:16 AM 41.0 °F 34.3 °F 39.2 °F 93% 29.55 in 7.0 mi WNW 11.5 mph 18.4 mph N/A   Overcast
7:37 AM 42.8 °F 38.0 °F 37.4 °F 81% 29.55 in 10.0 mi WNW 8.1 mph 17.3 mph N/A   Overcast
8:16 AM 42.8 °F 37.5 °F 39.2 °F 87% 29.55 in 10.0 mi WNW 9.2 mph 19.6 mph N/A   Overcast
8:37 AM 42.8 °F 37.0 °F 39.2 °F 87% 29.55 in 7.0 mi WNW 10.4 mph 20.7 mph N/A   Overcast
8:56 AM 42.8 °F 37.0 °F 39.2 °F 87% 29.55 in 7.0 mi WNW 10.4 mph 18.4 mph N/A   Overcast
9:16 AM 42.8 °F 37.5 °F 39.2 °F 87% 29.56 in 5.0 mi WNW 9.2 mph 18.4 mph N/A   Drizzle
9:36 AM 42.8 °F 36.6 °F 39.2 °F 87% 29.56 in 10.0 mi West 11.5 mph 20.7 mph N/A   Light Drizzle
9:56 AM 42.8 °F 36.2 °F 39.2 °F 87% 29.56 in 5.0 mi WNW 12.7 mph 18.4 mph N/A Rain Rain
10:17 AM 42.8 °F 35.8 °F 39.2 °F 87% 29.57 in 7.0 mi WNW 13.8 mph 23.0 mph N/A Rain Light Rain
10:36 AM 44.6 °F 38.4 °F 41.0 °F 87% 29.57 in 10.0 mi WNW 12.7 mph 19.6 mph N/A   Mostly Cloudy
10:56 AM 44.6 °F 37.8 °F 39.2 °F 81% 29.57 in 7.0 mi WNW 15.0 mph 19.6 mph N/A   Light Drizzle
11:17 AM 42.8 °F 35.4 °F 39.2 °F 87% 29.57 in 7.0 mi West 15.0 mph 19.6 mph N/A Rain Light Rain
11:36 AM 42.8 °F 36.6 °F 41.0 °F 93% 29.58 in 10.0 mi West 11.5 mph 18.4 mph N/A Rain Light Rain
11:56 AM 42.8 °F 36.2 °F 39.2 °F 87% 29.58 in 10.0 mi WNW 12.7 mph 17.3 mph N/A   Overcast
12:17 PM 44.6 °F 38.4 °F 39.2 °F 81% 29.58 in 10.0 mi WNW 12.7 mph 20.7 mph N/A   Overcast
12:36 PM 44.6 °F 38.4 °F 37.4 °F 76% 29.58 in 10.0 mi WNW 12.7 mph 24.2 mph N/A   Light Drizzle
12:56 PM 44.6 °F 36.9 °F 37.4 °F 76% 29.58 in 10.0 mi West 18.4 mph 24.2 mph N/A   Overcast
1:17 PM 46.4 °F 39.5 °F 37.4 °F 71% 29.57 in 10.0 mi West 17.3 mph 23.0 mph N/A   Mostly Cloudy
1:36 PM 46.4 °F 39.5 °F 35.6 °F 66% 29.57 in 10.0 mi WNW 17.3 mph 31.1 mph N/A   Overcast
1:56 PM 46.4 °F 40.1 °F 35.6 °F 66% 29.57 in 10.0 mi WNW 15.0 mph 29.9 mph N/A   Mostly Cloudy
2:17 PM 46.4 °F 39.5 °F 33.8 °F 62% 29.58 in 10.0 mi WNW 17.3 mph 28.8 mph N/A   Overcast
2:36 PM 46.4 °F 40.1 °F 33.8 °F 62% 29.58 in 10.0 mi WNW 15.0 mph 25.3 mph N/A   Overcast
2:56 PM 46.4 °F 40.4 °F 33.8 °F 62% 29.58 in 10.0 mi WNW 13.8 mph 28.8 mph N/A   Overcast
3:36 PM 46.4 °F 40.7 °F 33.8 °F 62% 29.59 in 10.0 mi WNW 12.7 mph 24.2 mph N/A   Overcast
3:57 PM 46.4 °F 41.5 °F 33.8 °F 62% 29.60 in 10.0 mi WNW 10.4 mph 25.3 mph N/A   Mostly Cloudy
4:16 PM 46.4 °F 41.1 °F 33.8 °F 62% 29.60 in 10.0 mi WNW 11.5 mph 24.2 mph N/A   Mostly Cloudy
4:36 PM 46.4 °F 40.7 °F 33.8 °F 62% 29.61 in 10.0 mi NW 12.7 mph 18.4 mph N/A   Mostly Cloudy
4:56 PM 46.4 °F 40.7 °F 33.8 °F 62% 29.61 in 10.0 mi WNW 12.7 mph 21.9 mph N/A   Mostly Cloudy
5:16 PM 46.4 °F 39.5 °F 32.0 °F 57% 29.62 in 10.0 mi WNW 17.3 mph 26.5 mph N/A   Mostly Cloudy
5:37 PM 46.4 °F 40.4 °F 32.0 °F 57% 29.62 in 10.0 mi NW 13.8 mph 23.0 mph N/A   Mostly Cloudy
5:56 PM 44.6 °F 37.8 °F 32.0 °F 61% 29.63 in 10.0 mi WNW 15.0 mph 24.2 mph N/A   Scattered Clouds
6:16 PM 44.6 °F 40.2 °F 32.0 °F 61% 29.63 in 10.0 mi WNW 8.1 mph 20.7 mph N/A   Scattered Clouds
6:37 PM 44.6 °F 39.2 °F 32.0 °F 61% 29.64 in 10.0 mi WNW 10.4 mph 17.3 mph N/A   Scattered Clouds
6:56 PM 44.6 °F 40.2 °F 33.8 °F 66% 29.64 in 10.0 mi WNW 8.1 mph - N/A   Mostly Cloudy
7:16 PM 44.6 °F 40.7 °F 33.8 °F 66% 29.64 in 10.0 mi WNW 6.9 mph 18.4 mph N/A   Overcast
7:37 PM 44.6 °F 38.8 °F 33.8 °F 66% 29.65 in 10.0 mi WNW 11.5 mph 18.4 mph N/A   Overcast
7:56 PM 44.6 °F 40.2 °F 33.8 °F 66% 29.65 in 10.0 mi WNW 8.1 mph - N/A   Overcast
8:16 PM 44.6 °F 38.8 °F 33.8 °F 66% 29.65 in 10.0 mi WNW 11.5 mph 16.1 mph N/A   Overcast
8:36 PM 44.6 °F 38.8 °F 33.8 °F 66% 29.65 in 10.0 mi WNW 11.5 mph 18.4 mph N/A   Overcast
8:56 PM 44.6 °F 39.2 °F 33.8 °F 66% 29.65 in 10.0 mi WNW 10.4 mph 19.6 mph N/A   Overcast
9:16 PM 44.6 °F 38.4 °F 32.0 °F 61% 29.65 in 10.0 mi WNW 12.7 mph 19.6 mph N/A   Overcast
9:37 PM 44.6 °F 39.2 °F 32.0 °F 61% 29.65 in 10.0 mi WNW 10.4 mph 18.4 mph N/A   Overcast
9:56 PM 42.8 °F 36.2 °F 30.2 °F 61% 29.65 in 10.0 mi WNW 12.7 mph 20.7 mph N/A   Overcast
10:16 PM 42.8 °F 36.6 °F 30.2 °F 61% 29.66 in 10.0 mi WNW 11.5 mph 23.0 mph N/A   Overcast
10:36 PM 42.8 °F 35.8 °F 30.2 °F 61% 29.67 in 10.0 mi WNW 13.8 mph 23.0 mph N/A   Mostly Cloudy
10:56 PM 41.0 °F 35.2 °F 30.2 °F 65% 29.66 in 10.0 mi WNW 9.2 mph 18.4 mph N/A   Clear
11:17 PM 39.2 °F 32.5 °F 30.2 °F 70% 29.66 in 10.0 mi WNW 10.4 mph 18.4 mph N/A   Clear
11:36 PM 39.2 °F 32.5 °F 30.2 °F 70% 29.66 in 10.0 mi WNW 10.4 mph 17.3 mph N/A   Clear
11:56 PM 39.2 °F 32.5 °F 30.2 °F 70% 29.66 in 10.0 mi West 10.4 mph 16.1 mph N/A   Clear